« Back
NWS Peachtree City, Ga » Text Product » AHN Terminal Aerodrome Forecast


Printer-friendly Version
Current Version              Previous Versions:   1  2  3  4  5  6  7  8  9  

Terminal Aerodrome Forecast

731
FTAK31 PAJN 011100
TAFAHN
TAF
PAHN 011120Z 0112/0212 32011G18KT P6SM SKC
     FM011900 32016G25KT P6SM SKC
     FM020300 31012G19KT P6SM SKC
      AMD LTD TO CLD VIS AND WIND=



USA.gov is the U.S. government's official web portal to all federal, state and local government web resources and services.